QPF
0.01 0.00 0.00 0.00 0.01 0.01 0.01 0.01 0.00 0.01 0.02 0.01 0.01 0.01 0.01 0.00 0.00 0.04 0.07 0.01 0.01 0.00 0.01 0.00 0.00 0.00 0.00 0.00 0.00 0.02 0.03 0.01 0.00 0.01 0.02 0.01 0.01 0.01 0.02 0.01 0.03 0.01 0.00 0.01 0.03 0.04 0.02 0.00 0.03 0.03 0.02 0.00 0.00 0.00
0.01 0.00 0.00 0.00 0.01 0.01 0.02 0.01 0.01 0.01 0.02 0.01 0.01 0.01 0.00 0.00 0.00 0.03 0.08 0.02 0.02 0.01 0.00 0.00 0.00 0.00 0.00 0.00 0.01 0.03 0.04 0.01 0.01 0.01 0.02 0.04 0.03 0.04 0.04 0.04 0.02 0.02 0.00 0.02 0.03 0.04 0.03 0.00 0.01 0.00 0.00 0.00 0.00 0.00
0.00 0.00 0.00 0.00 0.01 0.02 0.01 0.01 0.02 0.01 0.01 0.01 0.01 0.01 0.00 0.00 0.01 0.02 0.05 0.04 0.02 0.01 0.00 0.00 0.00 0.00 0.00 0.00 0.00 0.00 0.01 0.01 0.01 0.05 0.05 0.08 0.07 0.04 0.05 0.03 0.03 0.03 0.01 0.03 0.04 0.00 0.00 0.00 0.00 0.00 0.00 0.00 0.00 0.00
0.00 0.00 0.01 0.01 0.01 0.01 0.01 0.01 0.01 0.01 0.01 0.01 0.01 0.00 0.00 0.02 0.01 0.01 0.05 0.05 0.03 0.01 0.00 0.00 0.00 0.00 0.00 0.00 0.00 0.00 0.00 0.01 0.01 0.03 0.03 0.02 0.02 0.03 0.05 0.04 0.04 0.03 0.04 0.07 0.04 0.02 0.01 0.00 0.00 0.00 0.00 0.00 0.00 0.00
0.00 0.00 0.01 0.01 0.01 0.01 0.00 0.01 0.01 0.01 0.00 0.01 0.00 0.00 0.01 0.02 0.02 0.02 0.07 0.08 0.05 0.02 0.01 0.00 0.00 0.00 0.00 0.00 0.00 0.00 0.00 0.01 0.03 0.03 0.01 0.01 0.01 0.02 0.02 0.02 0.01 0.00 0.01 0.04 0.04 0.05 0.02 0.01 0.00 0.00 0.00 0.00 0.00 0.00
0.00 0.00 0.01 0.00 0.01 0.00 0.00 0.00 0.01 0.01 0.00 0.00 0.00 0.01 0.03 0.03 0.03 0.04 0.03 0.03 0.04 0.03 0.01 0.00 0.00 0.00 0.01 0.01 0.00 0.00 0.00 0.02 0.04 0.01 0.00 0.00 0.00 0.03 0.02 0.00 0.00 0.00 0.00 0.00 0.01 0.00 0.01 0.01 0.00 0.00 0.00 0.00 0.00 0.00
0.01 0.01 0.01 0.00 0.00 0.01 0.01 0.01 0.01 0.00 0.00 0.00 0.01 0.02 0.02 0.02 0.03 0.00 0.01 0.01 0.01 0.01 0.00 0.00 0.01 0.00 0.00 0.01 0.01 0.02 0.03 0.02 0.01 0.00 0.00 0.00 0.00 0.01 0.00 0.00 0.00 0.00 0.00 0.00 0.01 0.00 0.00 0.00 0.00 0.00 0.00 0.00 0.00 0.00
0.02 0.02 0.01 0.00 0.00 0.01 0.01 0.01 0.00 0.01 0.01 0.01 0.01 0.01 0.01 0.01 0.01 0.01 0.01 0.00 0.02 0.01 0.00 0.01 0.01 0.01 0.00 0.00 0.00 0.00 0.01 0.00 0.00 0.00 0.00 0.01 0.02 0.01 0.00 0.01 0.00 0.00 0.00 0.00 0.00 0.00 0.00 0.00 0.00 0.00 0.00 0.00 0.00 0.00
0.01 0.01 0.01 0.01 0.01 0.01 0.01 0.00 0.00 0.01 0.01 0.01 0.01 0.01 0.01 0.01 0.00 0.01 0.00 0.01 0.01 0.00 0.00 0.01 0.00 0.02 0.00 0.00 0.00 0.00 0.00 0.00 0.00 0.01 0.02 0.02 0.03 0.01 0.00 0.00 0.00 0.00 0.00 0.00 0.00 0.00 0.00 0.00 0.00 0.00 0.00 0.00 0.00 0.00
0.00 0.00 0.00 0.00 0.00 0.00 0.00 0.00 0.00 0.00 0.00 0.00 0.00 0.00 0.00 0.00 0.00 0.01 0.01 0.01 0.01 0.01 0.00 0.00 0.02 0.03 0.00 0.00 0.00 0.00 0.00 0.01 0.02 0.02 0.02 0.01 0.00 0.01 0.01 0.00 0.00 0.00 0.00 0.00 0.00 0.00 0.00 0.00 0.00 0.00 0.00 0.00 0.00 0.00
0.00 0.00 0.00 0.00 0.00 0.00 0.00 0.00 0.00 0.00 0.00 0.00 0.00 0.00 0.00 0.00 0.01 0.01 0.00 0.00 0.00 0.00 0.00 0.00 0.00 0.02 0.00 0.00 0.00 0.00 0.01 0.01 0.02 0.02 0.01 0.01 0.01 0.00 0.00 0.00 0.00 0.00 0.00 0.00 0.00 0.00 0.00 0.00 0.00 0.00 0.00 0.00 0.00 0.00
0.00 0.00 0.00 0.00 0.00 0.00 0.00 0.00 0.00 0.00 0.01 0.01 0.00 0.00 0.00 0.00 0.00 0.00 0.01 0.01 0.01 0.01 0.01 0.00 0.00 0.01 0.00 0.00 0.00 0.00 0.01 0.00 0.00 0.00 0.00 0.00 0.00 0.00 0.00 0.00 0.00 0.00 0.00 0.00 0.00 0.00 0.00 0.00 0.00 0.00 0.00 0.00 0.00 0.00
0.00 0.00 0.00 0.00 0.00 0.00 0.00 0.00 0.00 0.00 0.00 0.00 0.00 0.00 0.00 0.00 0.01 0.01 0.02 0.01 0.04 0.02 0.00 0.00 0.00 0.00 0.00 0.00 0.00 0.01 0.00 0.00 0.00 0.00 0.00 0.00 0.00 0.00 0.00 0.00 0.00 0.00 0.00 0.00 0.00 0.00 0.00 0.00 0.00 0.00 0.00 0.00 0.00 0.00
0.00 0.00 0.00 0.00 0.00 0.00 0.00 0.00 0.00 0.00 0.00 0.00 0.00 0.00 0.00 0.01 0.01 0.01 0.02 0.02 0.02 0.01 0.01 0.01 0.00 0.01 0.01 0.01 0.01 0.01 0.00 0.00 0.00 0.00 0.00 0.00 0.00 0.00 0.00 0.00 0.00 0.00 0.00 0.00 0.00 0.00 0.00 0.00 0.00 0.00 0.00 0.00 0.00 0.00
0.01 0.01 0.01 0.01 0.00 0.00 0.00 0.00 0.00 0.00 0.00 0.00 0.00 0.01 0.00 0.01 0.00 0.00 0.00 0.00 0.00 0.01 0.00 0.00 0.01 0.01 0.01 0.00 0.01 0.00 0.00 0.00 0.00 0.00 0.00 0.00 0.00 0.00 0.00 0.00 0.00 0.00 0.00 0.00 0.00 0.00 0.00 0.00 0.00 0.00 0.00 0.00 0.00 0.00
0.00 0.01 0.01 0.00 0.00 0.00 0.00 0.01 0.01 0.01 0.01 0.01 0.00 0.01 0.01 0.01 0.01 0.00 0.00 0.00 0.00 0.01 0.01 0.01 0.00 0.00 0.00 0.00 0.00 0.00 0.00 0.00 0.00 0.00 0.00 0.00 0.00 0.00 0.00 0.00 0.00 0.00 0.00 0.00 0.00 0.00 0.00 0.00 0.00 0.00 0.00 0.00 0.00 0.00
0.00 0.00 0.00 0.00 0.00 0.00 0.00 0.01 0.01 0.01 0.00 0.00 0.01 0.00 0.00 0.01 0.01 0.00 0.00 0.00 0.01 0.01 0.01 0.00 0.00 0.00 0.00 0.00 0.00 0.00 0.00 0.00 0.00 0.00 0.00 0.00 0.00 0.00 0.00 0.00 0.00 0.00 0.00 0.00 0.00 0.00 0.00 0.00 0.00 0.00 0.00 0.00 0.00 0.00
0.01 0.00 0.00 0.00 0.00 0.00 0.00 0.00 0.01 0.00 0.00 0.01 0.02 0.01 0.00 0.00 0.00 0.00 0.00 0.00 0.02 0.03 0.01 0.00 0.00 0.00 0.00 0.00 0.00 0.00 0.00 0.00 0.00 0.00 0.00 0.00 0.00 0.00 0.00 0.00 0.00 0.00 0.00 0.00 0.00 0.00 0.00 0.00 0.00 0.00 0.00 0.00 0.00 0.00
0.01 0.00 0.00 0.00 0.00 0.00 0.00 0.00 0.00 0.00 0.00 0.00 0.01 0.00 0.01 0.01 0.00 0.00 0.00 0.00 0.00 0.00 0.00 0.00 0.00 0.00 0.00 0.00 0.00 0.00 0.00 0.00 0.00 0.00 0.00 0.00 0.00 0.00 0.00 0.00 0.00 0.00 0.00 0.00 0.00 0.00 0.00 0.00 0.00 0.00 0.00 0.00 0.00 0.00
0.00 0.00 0.00 0.00 0.00 0.00 0.00 0.00 0.00 0.00 0.00 0.00 0.01 0.00 0.00 0.00 0.00 0.00 0.00 0.00 0.00 0.00 0.00 0.00 0.00 0.00 0.00 0.00 0.00 0.00 0.00 0.00 0.00 0.01 0.00 0.00 0.00 0.00 0.00 0.00 0.00 0.00 0.00 0.00 0.00 0.00 0.00 0.00 0.00 0.00 0.00 0.00 0.00 0.00
0.00 0.00 0.00 0.00 0.00 0.00 0.00 0.00 0.00 0.00 0.00 0.00 0.00 0.00 0.00 0.00 0.00 0.00 0.00 0.00 0.00 0.00 0.00 0.00 0.00 0.00 0.00 0.00 0.00 0.00 0.00 0.00 0.00 0.00 0.00 0.00 0.00 0.00 0.00 0.00 0.00 0.00 0.00 0.00 0.00 0.00 0.00 0.00 0.00 0.00 0.00 0.00 0.00 0.00
0.00 0.00 0.00 0.00 0.00 0.00 0.00 0.00 0.00 0.00 0.00 0.00 0.00 0.00 0.01 0.01 0.00 0.00 0.00 0.00 0.00 0.00 0.00 0.00 0.00 0.00 0.00 0.00 0.00 0.00 0.00 0.00 0.00 0.00 0.00 0.00 0.00 0.00 0.00 0.00 0.00 0.00 0.00 0.00 0.00 0.00 0.00 0.00 0.00 0.00 0.00 0.00 0.00 0.00
0.00 0.00 0.00 0.00 0.00 0.00 0.00 0.00 0.00 0.00 0.00 0.00 0.00 0.00 0.00 0.00 0.00 0.00 0.00 0.00 0.00 0.00 0.00 0.00 0.00 0.00 0.00 0.00 0.00 0.00 0.00 0.00 0.00 0.00 0.00 0.00 0.00 0.00 0.00 0.00 0.00 0.00 0.00 0.00 0.00 0.00 0.00 0.00 0.00 0.00 0.00 0.00 0.00 0.00
0.00 0.00 0.00 0.00 0.00 0.00 0.00 0.00 0.00 0.00 0.00 0.00 0.00 0.00 0.00 0.00 0.00 0.00 0.00 0.00 0.00 0.00 0.00 0.00 0.00 0.00 0.00 0.00 0.00 0.00 0.00 0.00 0.00 0.00 0.00 0.00 0.00 0.00 0.00 0.00 0.00 0.00 0.00 0.01 0.00 0.01 0.01 0.01 0.00 0.00 0.00 0.00 0.00 0.00
0.00 0.00 0.00 0.00 0.00 0.00 0.00 0.00 0.00 0.00 0.00 0.00 0.00 0.00 0.00 0.00 0.00 0.00 0.00 0.00 0.00 0.00 0.00 0.00 0.00 0.00 0.00 0.00 0.00 0.00 0.00 0.00 0.00 0.00 0.00 0.00 0.00 0.01 0.00 0.00 0.00 0.00 0.00 0.00 0.00 0.00 0.00 0.00 0.00 0.00 0.00 0.00 0.00 0.00
0.00 0.00 0.00 0.00 0.00 0.00 0.00 0.00 0.00 0.00 0.00 0.00 0.00 0.00 0.00 0.00 0.00 0.00 0.00 0.00 0.00 0.00 0.00 0.00 0.00 0.00 0.00 0.00 0.00 0.00 0.00 0.00 0.00 0.00 0.00 0.00 0.00 0.00 0.00 0.00 0.01 0.00 0.00 0.00 0.00 0.00 0.00 0.00 0.00 0.00 0.00 0.00 0.01 0.00
0.00 0.00 0.00 0.00 0.00 0.00 0.00 0.00 0.00 0.00 0.00 0.00 0.00 0.00 0.00 0.00 0.00 0.00 0.00 0.00 0.00 0.00 0.00 0.00 0.00 0.00 0.00 0.00 0.00 0.00 0.00 0.00 0.00 0.00 0.00 0.00 0.00 0.00 0.00 0.00 0.00 0.00 0.00 0.00 0.00 0.00 0.00 0.00 0.00 0.00 0.01 0.01 0.00 0.00
0.00 0.00 0.00 0.00 0.00 0.00 0.00 0.00 0.00 0.00 0.00 0.00 0.00 0.00 0.00 0.00 0.00 0.00 0.00 0.00 0.00 0.00 0.00 0.00 0.00 0.00 0.00 0.00 0.00 0.00 0.00 0.00 0.00 0.00 0.00 0.00 0.00 0.00 0.00 0.00 0.00 0.00 0.00 0.00 0.00 0.00 0.00 0.00 0.00 0.00 0.01 0.00 0.00 0.00
0.00 0.00 0.00 0.00 0.00 0.00 0.00 0.00 0.00 0.00 0.00 0.00 0.01 0.01 0.00 0.00 0.00 0.00 0.00 0.00 0.00 0.00 0.00 0.00 0.00 0.00 0.00 0.00 0.00 0.00 0.00 0.00 0.00 0.00 0.00 0.01 0.00 0.00 0.00 0.00 0.00 0.00 0.00 0.00 0.00 0.00 0.00 0.00 0.00 0.00 0.00 0.00 0.00 0.00
0.00 0.00 0.00 0.00 0.00 0.00 0.01 0.01 0.01 0.00 0.00 0.00 0.00 0.00 0.00 0.00 0.00 0.00 0.00 0.00 0.00 0.00 0.00 0.00 0.00 0.00 0.00 0.00 0.00 0.00 0.00 0.00 0.00 0.00 0.00 0.00 0.00 0.00 0.00 0.00 0.00 0.00 0.00 0.00 0.00 0.00 0.00 0.00 0.00 0.00 0.00 0.00 0.00 0.00
0.00 0.00 0.01 0.01 0.01 0.02 0.01 0.00 0.00 0.00 0.00 0.00 0.00 0.00 0.00 0.00 0.00 0.00 0.00 0.00 0.00 0.00 0.00 0.00 0.00 0.00 0.00 0.00 0.00 0.00 0.00 0.00 0.00 0.00 0.00 0.00 0.00 0.00 0.00 0.00 0.00 0.00 0.00 0.00 0.00 0.00 0.00 0.00 0.00 0.00 0.00 0.00 0.00 0.00
0.00 0.01 0.01 0.00 0.01 0.01 0.00 0.01 0.01 0.00 0.00 0.00 0.00 0.00 0.00 0.00 0.00 0.00 0.00 0.00 0.00 0.00 0.00 0.00 0.00 0.00 0.00 0.00 0.00 0.00 0.00 0.00 0.00 0.00 0.00 0.00 0.00 0.00 0.00 0.00 0.00 0.00 0.00 0.00 0.00 0.00 0.00 0.00 0.00 0.00 0.00 0.00 0.00 0.00
0.00 0.00 0.00 0.00 0.01 0.01 0.02 0.02 0.02 0.00 0.00 0.00 0.00 0.00 0.00 0.00 0.00 0.00 0.00 0.00 0.00 0.00 0.00 0.00 0.00 0.00 0.00 0.00 0.00 0.00 0.00 0.00 0.00 0.00 0.00 0.00 0.00 0.00 0.00 0.00 0.00 0.00 0.00 0.00 0.00 0.00 0.00 0.00 0.00 0.00 0.00 0.00 0.00 0.00
MSLP
1005.58 1005.65 1005.70 1005.86 1006.12 1006.42 1006.75 1007.07 1007.67 1008.24 1008.70 1008.94 1009.27 1009.87 1010.57 1011.90 1013.26 1013.94 1013.73 1013.53 1013.33 1012.96 1012.13 1011.84 1011.61 1011.71 1011.95 1012.33 1012.69 1012.96 1013.87 1014.71 1015.53 1015.96 1015.83 1014.37 1012.59 1011.01 1009.82 1009.48 1009.60 1010.62 1011.34 1011.27 1011.55 1011.08 1009.58 1008.39 1007.99 1008.74 1008.26 1008.25 1008.72 1008.83
1004.64 1004.67 1004.73 1005.00 1005.18 1005.40 1005.66 1006.14 1006.58 1007.15 1007.24 1007.66 1008.25 1009.10 1010.02 1011.42 1012.86 1013.66 1013.57 1013.64 1013.71 1013.75 1012.95 1012.96 1012.72 1012.71 1012.52 1013.20 1013.17 1013.78 1013.99 1014.57 1015.23 1015.65 1014.96 1013.50 1012.17 1010.96 1009.98 1009.52 1009.11 1009.96 1009.59 1009.60 1009.64 1009.02 1008.91 1008.70 1008.47 1008.85 1008.48 1008.48 1008.98 1009.29
1003.68 1003.68 1003.98 1004.14 1004.30 1004.39 1004.63 1004.99 1005.34 1005.64 1006.15 1006.55 1006.35 1008.08 1009.73 1011.30 1012.40 1013.04 1013.58 1013.72 1014.02 1013.85 1013.43 1013.12 1012.88 1012.96 1012.88 1013.24 1013.72 1014.38 1013.81 1014.33 1015.03 1015.12 1014.99 1014.09 1012.49 1011.13 1010.39 1009.46 1008.98 1009.17 1009.13 1009.37 1009.74 1008.06 1007.78 1007.46 1007.89 1008.16 1008.66 1008.86 1008.96 1009.42
1002.73 1002.87 1003.17 1003.26 1003.29 1003.21 1003.45 1003.56 1004.08 1004.49 1004.82 1005.52 1006.80 1008.28 1009.79 1011.26 1012.11 1013.05 1013.71 1013.93 1013.76 1013.87 1013.62 1012.57 1012.12 1012.31 1012.58 1012.86 1013.40 1013.91 1014.12 1014.28 1014.73 1015.12 1015.18 1014.63 1013.43 1011.79 1010.94 1010.08 1009.49 1009.10 1009.11 1008.69 1008.47 1008.02 1007.63 1007.48 1007.87 1007.57 1008.29 1008.92 1009.09 1009.50
1002.03 1002.05 1002.07 1002.21 1002.29 1001.91 1002.30 1003.09 1002.88 1002.72 1004.03 1005.58 1007.21 1008.56 1010.02 1011.11 1012.30 1013.23 1013.94 1014.10 1014.04 1014.06 1013.99 1013.31 1012.76 1012.26 1012.06 1012.52 1012.75 1013.23 1013.76 1014.19 1014.71 1015.32 1015.35 1014.78 1013.63 1012.86 1011.34 1010.32 1009.40 1008.82 1008.26 1008.11 1007.92 1008.00 1007.95 1007.67 1007.75 1007.69 1008.19 1008.83 1009.24 1009.84
1001.28 1001.21 1000.99 1000.89 1000.68 1000.91 1000.72 1001.00 1001.39 1002.89 1004.58 1006.23 1007.65 1009.06 1010.37 1011.46 1012.62 1013.69 1014.48 1014.54 1014.29 1014.46 1014.48 1013.82 1012.42 1011.55 1011.62 1011.87 1012.42 1012.79 1013.28 1013.94 1014.61 1015.21 1015.27 1014.86 1014.20 1013.90 1012.23 1010.20 1009.06 1008.28 1008.28 1008.07 1007.43 1007.75 1008.01 1007.73 1007.80 1007.72 1008.12 1008.83 1009.35 1010.02
1000.51 1000.23 999.58 999.71 999.65 999.90 1000.23 1001.38 1002.60 1004.01 1005.50 1007.00 1008.28 1009.62 1010.90 1012.07 1013.12 1014.12 1014.27 1014.06 1013.90 1014.73 1015.05 1014.32 1012.37 1011.62 1011.74 1011.90 1012.43 1013.04 1013.32 1013.92 1014.43 1014.98 1014.93 1014.70 1014.18 1013.78 1012.44 1010.64 1009.28 1008.72 1008.13 1007.92 1007.59 1007.80 1008.02 1008.20 1007.96 1008.16 1008.43 1008.83 1009.61 1010.33
999.47 999.28 997.81 997.82 998.99 1000.05 1001.23 1002.42 1003.74 1005.20 1006.61 1008.02 1009.28 1010.46 1011.52 1012.62 1013.58 1014.01 1014.13 1013.97 1014.32 1015.02 1015.20 1014.35 1012.35 1012.18 1012.59 1012.78 1013.21 1013.49 1013.76 1014.19 1014.52 1014.53 1014.49 1013.87 1013.38 1012.86 1011.54 1009.94 1008.98 1008.19 1008.02 1007.80 1007.85 1007.99 1008.16 1008.37 1008.46 1008.59 1008.78 1009.36 1010.12 1010.87
999.55 999.44 998.94 999.53 1000.50 1001.50 1002.72 1003.96 1005.11 1006.37 1007.59 1008.90 1010.14 1011.38 1012.43 1013.04 1013.61 1013.92 1014.37 1014.55 1014.91 1015.41 1014.93 1014.17 1012.73 1012.17 1013.14 1013.22 1013.47 1013.98 1013.80 1013.96 1014.07 1013.56 1013.07 1012.89 1011.95 1011.13 1010.06 1009.27 1008.90 1008.67 1008.53 1008.25 1008.19 1008.44 1008.51 1008.76 1008.93 1009.11 1009.46 1010.10 1010.70 1011.56
1000.28 1000.80 1001.26 1001.97 1002.75 1003.53 1004.29 1005.25 1006.32 1007.54 1008.81 1009.98 1011.03 1012.35 1013.26 1013.56 1013.72 1014.04 1014.97 1015.12 1015.08 1014.92 1014.76 1013.78 1012.38 1012.43 1013.17 1013.35 1013.45 1013.63 1013.18 1012.73 1012.48 1011.87 1011.56 1011.33 1010.31 1009.47 1009.58 1009.63 1009.34 1009.22 1009.11 1008.77 1008.68 1008.91 1009.06 1009.25 1009.54 1009.80 1010.16 1010.77 1011.32 1012.20
1002.19 1002.60 1003.15 1003.79 1004.46 1005.20 1005.96 1006.78 1007.73 1008.69 1009.39 1010.14 1011.73 1012.75 1013.40 1013.69 1013.87 1014.23 1014.39 1014.41 1014.10 1013.86 1013.32 1012.14 1011.43 1011.92 1012.85 1012.93 1012.87 1012.58 1011.95 1011.48 1010.75 1010.44 1010.33 1010.14 1009.77 1010.21 1010.27 1010.14 1009.93 1009.78 1009.51 1009.13 1009.18 1009.40 1009.39 1009.45 1009.89 1010.36 1010.78 1011.30 1011.88 1012.77
1004.03 1004.48 1005.01 1005.52 1006.03 1006.64 1007.31 1008.00 1008.59 1008.90 1009.81 1010.61 1011.66 1013.08 1013.56 1013.83 1013.69 1013.65 1013.15 1012.80 1012.49 1011.19 1010.87 1010.64 1010.75 1011.16 1012.34 1012.62 1012.44 1012.11 1011.20 1010.80 1010.04 1009.76 1010.01 1010.00 1010.76 1010.84 1011.02 1010.88 1010.61 1010.45 1010.24 1009.91 1010.18 1010.20 1010.38 1010.20 1010.34 1010.85 1011.41 1011.99 1012.59 1013.41
1005.72 1006.12 1006.57 1007.10 1007.57 1008.04 1008.67 1009.17 1009.46 1010.17 1010.21 1010.68 1011.70 1012.83 1013.20 1013.24 1012.73 1012.11 1011.27 1010.65 1010.20 1009.83 1010.25 1010.49 1010.94 1011.41 1012.11 1012.19 1012.18 1011.76 1011.29 1010.58 1009.83 1010.07 1010.14 1010.91 1011.55 1012.01 1012.08 1012.00 1011.59 1011.23 1011.44 1011.31 1011.69 1011.91 1011.84 1011.74 1011.62 1011.73 1012.42 1012.98 1013.65 1014.47
1007.21 1007.62 1007.99 1008.42 1008.90 1009.32 1009.78 1010.20 1010.48 1010.32 1010.40 1011.24 1012.09 1012.52 1012.30 1011.69 1011.13 1010.26 1010.31 1010.33 1009.95 1009.43 1009.74 1010.21 1010.87 1011.22 1011.60 1011.69 1011.73 1011.28 1011.01 1010.35 1010.34 1010.53 1010.82 1012.15 1012.78 1013.03 1013.12 1013.06 1012.63 1012.77 1013.01 1013.10 1013.41 1013.50 1013.48 1013.37 1013.35 1013.32 1013.55 1014.07 1014.55 1015.45
1008.55 1008.87 1009.27 1009.74 1009.99 1010.24 1010.55 1010.74 1010.80 1010.58 1011.17 1011.70 1011.87 1011.22 1011.03 1010.67 1010.46 1010.53 1010.47 1010.30 1009.93 1009.71 1010.06 1010.41 1010.59 1010.72 1010.92 1011.34 1011.00 1010.84 1011.05 1010.65 1010.55 1011.10 1012.34 1013.26 1013.75 1013.91 1014.02 1014.04 1013.92 1013.97 1014.08 1014.13 1014.17 1014.23 1014.32 1014.36 1014.48 1014.73 1014.96 1015.16 1015.43 1016.07
1009.57 1009.94 1010.39 1010.47 1010.77 1010.90 1011.08 1011.25 1011.33 1011.41 1011.47 1011.62 1011.27 1011.24 1010.79 1010.74 1010.69 1010.80 1010.61 1010.36 1009.97 1009.89 1010.06 1010.14 1010.03 1010.13 1010.23 1010.07 1010.25 1010.43 1010.62 1010.89 1011.95 1012.93 1013.75 1014.16 1014.50 1014.74 1014.80 1014.76 1014.85 1014.89 1014.79 1014.79 1014.84 1014.85 1014.89 1014.86 1014.98 1015.33 1015.65 1015.93 1016.19 1016.53
1009.61 1010.02 1010.90 1010.92 1011.09 1011.26 1011.41 1011.51 1010.98 1010.93 1011.03 1011.09 1011.06 1011.30 1011.34 1011.09 1011.02 1010.97 1010.82 1010.50 1010.04 1010.07 1009.83 1009.54 1009.30 1009.16 1009.71 1009.83 1010.46 1011.25 1012.04 1012.93 1013.59 1014.18 1014.65 1015.07 1015.31 1015.41 1015.33 1015.33 1015.32 1015.26 1015.24 1015.26 1015.33 1015.37 1015.44 1015.51 1015.60 1015.68 1015.88 1016.25 1016.45 1016.74
1010.06 1010.77 1010.98 1011.02 1011.17 1011.15 1010.86 1010.79 1010.43 1010.53 1010.70 1010.87 1010.89 1011.39 1011.58 1011.72 1011.46 1011.37 1011.07 1010.64 1010.28 1009.79 1009.47 1009.23 1009.23 1009.63 1010.40 1010.88 1011.81 1012.91 1013.59 1014.07 1014.46 1014.94 1015.40 1015.70 1015.91 1015.90 1015.83 1015.77 1015.78 1015.74 1015.79 1015.81 1015.79 1015.77 1015.77 1015.76 1015.71 1015.66 1015.93 1016.32 1016.51 1016.83
1010.71 1010.74 1011.13 1011.09 1011.23 1010.95 1010.49 1010.24 1010.00 1010.22 1010.54 1010.78 1011.07 1011.32 1011.51 1011.76 1011.78 1011.55 1011.23 1010.63 1010.13 1009.58 1009.44 1009.59 1010.46 1011.30 1012.55 1013.26 1013.64 1014.11 1014.50 1014.70 1014.91 1015.38 1015.83 1016.05 1016.16 1016.15 1016.09 1016.11 1016.11 1016.10 1016.14 1016.08 1015.95 1015.90 1015.94 1016.10 1016.02 1015.75 1015.81 1016.26 1016.28 1016.38
1011.08 1011.08 1011.00 1011.01 1011.24 1010.20 1009.88 1010.07 1009.97 1009.86 1010.21 1010.58 1010.87 1011.11 1011.37 1011.58 1011.80 1011.76 1011.44 1011.00 1010.70 1010.63 1011.13 1011.81 1012.89 1013.82 1014.31 1014.96 1015.14 1015.38 1015.58 1015.49 1015.36 1015.56 1015.91 1016.13 1016.28 1016.33 1016.40 1016.35 1016.27 1016.19 1016.19 1016.22 1016.26 1016.21 1016.10 1016.11 1016.23 1016.36 1016.59 1016.63 1016.62 1016.87
1010.95 1010.83 1010.76 1010.84 1010.37 1010.15 1010.11 1009.89 1009.67 1009.90 1010.27 1010.44 1010.71 1010.95 1011.25 1011.31 1011.48 1011.58 1011.64 1011.71 1011.93 1012.37 1013.02 1013.91 1014.70 1015.37 1015.82 1016.11 1016.19 1016.28 1016.40 1016.18 1016.18 1016.20 1016.48 1016.54 1016.66 1016.64 1016.68 1016.65 1016.58 1016.57 1016.63 1016.59 1016.63 1016.67 1016.64 1016.69 1016.75 1016.91 1017.19 1017.34 1017.46 1017.55
1010.65 1010.86 1010.47 1010.39 1010.28 1010.38 1010.31 1010.12 1009.76 1009.87 1010.11 1010.33 1010.73 1010.74 1010.97 1011.24 1011.55 1011.82 1011.81 1012.36 1013.40 1014.27 1014.46 1014.85 1015.47 1015.94 1016.40 1016.78 1016.96 1016.97 1017.12 1016.63 1016.63 1016.94 1017.12 1017.23 1017.22 1017.20 1017.20 1017.28 1017.15 1017.15 1017.26 1017.31 1017.29 1017.29 1017.31 1017.38 1017.48 1017.57 1017.57 1017.64 1017.64 1017.66
1011.02 1010.92 1010.63 1010.57 1010.96 1010.88 1010.92 1010.31 1009.94 1009.86 1010.10 1010.25 1010.40 1010.58 1010.86 1011.16 1011.56 1011.96 1012.52 1013.52 1014.82 1015.46 1015.53 1015.74 1016.11 1016.32 1016.74 1017.07 1017.19 1017.31 1017.10 1016.72 1017.12 1017.59 1017.73 1017.78 1017.88 1017.92 1017.93 1018.02 1018.05 1018.05 1017.96 1017.89 1017.82 1017.74 1017.85 1018.04 1018.03 1018.00 1017.98 1017.91 1017.84 1017.78
1011.42 1011.55 1011.62 1011.36 1011.23 1011.35 1011.30 1010.67 1010.12 1010.08 1010.14 1010.17 1010.28 1010.63 1010.75 1011.14 1011.72 1011.89 1012.65 1014.04 1015.44 1015.94 1016.20 1016.44 1016.39 1016.51 1016.68 1016.74 1017.10 1017.68 1017.68 1017.19 1017.66 1018.07 1018.37 1018.26 1018.25 1018.42 1018.56 1018.76 1018.96 1019.16 1019.12 1018.76 1018.60 1018.46 1018.45 1018.44 1018.41 1018.34 1018.30 1018.20 1018.07 1017.91
1011.91 1012.73 1012.46 1011.87 1011.71 1011.56 1011.29 1011.01 1010.91 1010.40 1010.66 1010.79 1010.75 1010.93 1011.21 1011.64 1011.91 1012.44 1013.26 1014.94 1015.84 1016.31 1016.70 1016.75 1016.72 1016.57 1016.82 1017.26 1017.65 1018.13 1018.28 1018.15 1018.20 1018.47 1018.91 1018.94 1018.83 1018.56 1018.80 1019.01 1019.53 1019.96 1020.12 1019.99 1019.83 1019.59 1019.36 1019.25 1019.06 1018.91 1018.68 1018.52 1018.36 1018.22
1012.22 1012.87 1012.58 1012.12 1011.78 1011.51 1011.26 1011.05 1011.02 1010.95 1010.91 1011.13 1011.35 1011.69 1011.95 1012.13 1012.74 1013.27 1014.42 1015.59 1016.30 1016.93 1017.28 1017.29 1017.26 1017.30 1017.57 1017.88 1018.18 1018.63 1019.00 1019.14 1018.95 1019.03 1019.57 1019.74 1019.80 1019.76 1019.74 1019.79 1020.02 1020.61 1020.91 1020.83 1020.65 1020.37 1020.13 1019.88 1019.61 1019.32 1018.94 1018.65 1018.53 1018.59
1012.80 1012.96 1012.61 1012.60 1012.27 1011.86 1011.73 1011.60 1011.52 1011.47 1011.42 1011.38 1011.65 1012.39 1012.75 1013.21 1013.63 1015.46 1016.60 1017.35 1017.51 1018.00 1018.29 1018.42 1018.29 1018.20 1018.41 1018.92 1019.42 1019.83 1020.03 1019.99 1019.97 1019.97 1020.17 1020.45 1020.75 1020.92 1021.05 1021.19 1021.35 1021.69 1021.49 1021.31 1021.14 1020.96 1020.68 1020.33 1020.04 1019.71 1019.40 1018.97 1019.27 1019.49
1013.58 1013.53 1013.45 1013.36 1012.98 1012.59 1012.41 1012.15 1011.99 1011.87 1011.91 1012.03 1012.44 1012.94 1013.71 1014.90 1016.15 1017.46 1018.10 1018.63 1018.84 1018.97 1019.25 1019.43 1019.51 1019.55 1019.79 1020.13 1020.43 1020.54 1020.51 1020.59 1020.66 1020.60 1020.67 1020.84 1021.22 1021.57 1021.81 1021.92 1022.01 1022.00 1021.83 1021.65 1021.42 1021.18 1020.99 1020.91 1020.59 1020.24 1019.86 1019.92 1020.25 1020.41
1014.15 1014.21 1014.12 1013.76 1013.66 1013.20 1012.93 1012.62 1012.51 1013.05 1013.56 1013.60 1013.94 1014.55 1016.01 1017.72 1018.73 1019.06 1019.57 1019.69 1019.68 1019.55 1019.67 1019.94 1020.27 1020.41 1020.63 1020.95 1021.21 1021.38 1021.41 1021.27 1020.98 1020.80 1020.78 1020.85 1021.50 1022.11 1022.25 1022.33 1022.33 1022.26 1022.15 1021.94 1021.73 1021.53 1021.40 1021.28 1021.16 1020.99 1020.80 1021.01 1021.41 1021.70
1015.13 1015.10 1014.95 1014.47 1014.13 1013.63 1013.39 1013.69 1013.93 1014.61 1014.98 1015.31 1015.85 1016.83 1017.95 1019.27 1020.28 1020.54 1020.37 1020.27 1020.17 1020.11 1020.36 1020.54 1020.73 1020.50 1020.78 1020.88 1021.46 1021.99 1022.34 1022.49 1022.53 1022.44 1022.24 1022.34 1022.52 1022.73 1022.77 1022.83 1022.80 1022.73 1022.59 1022.41 1022.16 1021.91 1021.65 1021.47 1021.44 1021.59 1021.74 1021.98 1022.39 1022.78
1016.03 1015.71 1015.13 1014.70 1014.13 1013.87 1014.47 1014.91 1015.21 1015.46 1015.82 1016.27 1016.73 1017.00 1018.22 1019.86 1020.94 1021.38 1021.44 1021.39 1021.25 1021.19 1021.07 1021.23 1021.40 1021.47 1021.49 1021.74 1021.89 1022.13 1022.79 1023.36 1023.61 1023.78 1023.79 1023.55 1023.50 1023.54 1023.49 1023.45 1023.39 1023.26 1023.14 1023.00 1022.82 1022.66 1022.48 1022.54 1022.74 1023.01 1023.28 1023.58 1023.94 1024.26
1016.46 1016.09 1015.91 1015.52 1015.13 1014.93 1014.87 1014.74 1014.77 1015.36 1016.07 1016.63 1017.42 1018.38 1019.20 1019.70 1020.50 1021.68 1022.50 1022.27 1021.71 1021.72 1022.19 1021.99 1021.89 1022.36 1022.58 1022.71 1022.92 1023.34 1023.66 1024.06 1024.46 1024.79 1024.97 1024.91 1024.77 1024.60 1024.07 1023.89 1023.83 1023.77 1023.75 1023.79 1023.77 1023.69 1023.67 1023.84 1024.19 1024.60 1025.04 1025.39 1025.74 1026.04
1016.88 1016.57 1016.31 1016.04 1015.40 1015.07 1015.21 1015.09 1014.67 1015.34 1016.06 1016.74 1017.74 1018.52 1019.29 1019.87 1021.07 1022.37 1023.09 1023.07 1022.91 1022.77 1022.71 1022.73 1022.87 1023.11 1023.34 1023.40 1023.56 1023.95 1024.38 1025.09 1025.64 1025.76 1025.97 1026.15 1026.22 1025.75 1024.90 1024.59 1024.30 1024.40 1024.47 1024.52 1024.67 1024.84 1025.03 1025.31 1025.68 1026.08 1026.50 1026.88 1027.24 1027.57
Thickness
5259 5264 5270 5276 5281 5285 5289 5293 5297 5302 5318 5338 5355 5368 5377 5380 5379 5379 5388 5395 5403 5409 5424 5433 5440 5444 5446 5448 5448 5454 5447 5437 5428 5432 5434 5460 5477 5491 5499 5504 5498 5483 5476 5480 5478 5476 5478 5513 5514 5492 5504 5507 5500 5498
5262 5268 5274 5278 5284 5288 5294 5300 5305 5309 5327 5347 5361 5371 5378 5379 5376 5376 5383 5387 5392 5396 5410 5416 5425 5430 5435 5431 5438 5434 5439 5430 5434 5429 5449 5468 5476 5486 5493 5488 5503 5483 5494 5494 5495 5497 5493 5492 5496 5497 5500 5499 5492 5489
5268 5273 5277 5283 5289 5296 5301 5304 5309 5322 5340 5357 5375 5376 5378 5376 5375 5377 5378 5382 5384 5390 5401 5410 5415 5420 5424 5425 5426 5420 5438 5437 5431 5435 5438 5449 5466 5482 5481 5490 5495 5493 5497 5488 5482 5506 5506 5508 5502 5498 5493 5489 5488 5484
5275 5282 5288 5294 5300 5307 5311 5318 5327 5340 5357 5369 5373 5377 5375 5372 5373 5373 5373 5375 5382 5387 5390 5409 5418 5419 5423 5424 5424 5426 5428 5430 5430 5430 5428 5432 5448 5472 5475 5482 5483 5490 5481 5488 5490 5498 5501 5501 5497 5499 5491 5483 5482 5479
5287 5294 5300 5305 5309 5322 5329 5335 5350 5365 5371 5372 5374 5374 5372 5372 5370 5367 5366 5369 5374 5381 5381 5392 5406 5416 5423 5423 5424 5425 5425 5426 5424 5417 5416 5428 5447 5453 5470 5476 5479 5487 5490 5485 5484 5490 5490 5494 5493 5494 5487 5479 5476 5469
5300 5307 5314 5320 5331 5340 5354 5362 5372 5374 5374 5374 5373 5371 5369 5367 5363 5358 5354 5361 5366 5369 5375 5385 5408 5419 5423 5424 5423 5424 5425 5423 5417 5408 5412 5419 5434 5433 5443 5464 5482 5488 5485 5486 5490 5487 5486 5487 5486 5489 5483 5475 5470 5463
5316 5325 5336 5343 5354 5363 5371 5372 5374 5374 5374 5371 5370 5366 5363 5360 5358 5354 5360 5366 5366 5363 5364 5374 5403 5412 5415 5419 5417 5414 5416 5410 5412 5405 5406 5413 5423 5424 5425 5446 5470 5474 5481 5481 5482 5481 5478 5477 5478 5477 5475 5471 5463 5458
5337 5345 5365 5375 5373 5374 5374 5375 5374 5371 5369 5365 5363 5361 5358 5354 5353 5354 5357 5359 5358 5354 5356 5370 5400 5404 5399 5399 5401 5398 5399 5398 5397 5403 5403 5416 5425 5422 5430 5454 5467 5473 5472 5473 5472 5473 5471 5469 5468 5466 5465 5460 5453 5447
5350 5358 5370 5375 5375 5375 5373 5371 5371 5367 5364 5361 5358 5353 5350 5351 5350 5351 5349 5349 5349 5349 5354 5363 5387 5407 5386 5389 5390 5388 5394 5400 5399 5406 5416 5421 5430 5431 5445 5459 5460 5458 5457 5460 5462 5459 5460 5456 5455 5455 5453 5447 5442 5436
5359 5361 5364 5366 5367 5368 5369 5368 5367 5363 5359 5356 5353 5346 5343 5344 5345 5345 5340 5339 5343 5346 5350 5363 5392 5398 5388 5388 5392 5394 5394 5405 5416 5422 5427 5426 5446 5458 5451 5448 5446 5444 5443 5447 5447 5444 5445 5443 5442 5442 5442 5438 5437 5431
5357 5358 5359 5360 5361 5362 5362 5362 5360 5357 5356 5355 5346 5342 5340 5339 5341 5339 5341 5345 5349 5355 5362 5381 5397 5399 5385 5394 5397 5399 5411 5417 5432 5433 5436 5443 5449 5434 5436 5433 5432 5430 5432 5437 5439 5438 5442 5443 5439 5436 5435 5433 5431 5424
5352 5353 5353 5354 5356 5356 5355 5354 5354 5356 5354 5352 5347 5335 5335 5336 5340 5344 5353 5361 5362 5386 5389 5396 5401 5399 5386 5386 5391 5400 5414 5421 5426 5440 5435 5440 5425 5425 5420 5419 5419 5419 5420 5426 5425 5428 5429 5435 5436 5433 5429 5425 5421 5414
5346 5346 5346 5346 5346 5346 5344 5344 5344 5342 5345 5346 5341 5334 5339 5341 5350 5356 5371 5389 5392 5391 5386 5388 5388 5387 5386 5390 5390 5399 5402 5413 5435 5425 5431 5422 5413 5405 5403 5402 5406 5409 5404 5409 5406 5405 5407 5411 5410 5419 5410 5403 5398 5392
5338 5337 5338 5337 5336 5336 5335 5334 5336 5341 5345 5338 5337 5340 5346 5352 5364 5383 5379 5376 5384 5396 5396 5394 5386 5388 5385 5390 5390 5399 5402 5420 5418 5421 5429 5399 5391 5389 5388 5386 5395 5387 5379 5383 5380 5381 5384 5386 5389 5390 5390 5389 5386 5379
5331 5331 5330 5329 5330 5331 5330 5331 5334 5340 5337 5336 5338 5356 5357 5365 5371 5370 5374 5377 5382 5387 5383 5384 5387 5390 5390 5385 5396 5406 5399 5412 5425 5423 5396 5383 5378 5376 5375 5372 5374 5375 5369 5371 5374 5372 5373 5375 5376 5374 5373 5374 5373 5368
5327 5326 5325 5326 5325 5326 5327 5328 5331 5333 5334 5337 5349 5350 5361 5363 5365 5364 5367 5372 5381 5380 5384 5386 5391 5393 5396 5406 5409 5409 5420 5425 5398 5382 5373 5371 5367 5365 5364 5364 5362 5361 5364 5364 5364 5365 5365 5366 5368 5366 5363 5361 5359 5357
5328 5327 5320 5321 5322 5323 5324 5326 5334 5339 5342 5345 5348 5350 5351 5358 5360 5362 5363 5369 5379 5379 5385 5394 5400 5407 5409 5412 5409 5394 5387 5373 5367 5363 5361 5357 5355 5354 5355 5354 5354 5355 5356 5357 5356 5355 5354 5354 5353 5355 5354 5351 5349 5347
5326 5321 5320 5322 5322 5324 5331 5334 5340 5342 5342 5347 5350 5346 5346 5347 5353 5357 5359 5369 5375 5379 5388 5388 5404 5403 5398 5405 5387 5368 5361 5359 5357 5353 5349 5347 5344 5344 5345 5346 5345 5346 5345 5344 5344 5344 5345 5345 5348 5350 5346 5341 5340 5337
5323 5322 5321 5323 5323 5328 5332 5339 5345 5340 5342 5345 5346 5347 5347 5346 5347 5350 5355 5366 5376 5384 5389 5392 5382 5383 5364 5359 5358 5353 5351 5350 5350 5345 5340 5338 5337 5337 5338 5338 5337 5336 5335 5336 5337 5338 5337 5334 5336 5340 5339 5334 5336 5333
5321 5322 5323 5324 5324 5337 5339 5339 5344 5347 5344 5345 5347 5347 5348 5347 5347 5347 5353 5362 5368 5370 5364 5362 5353 5344 5343 5336 5335 5334 5333 5336 5340 5339 5335 5333 5331 5331 5329 5330 5331 5331 5331 5329 5328 5328 5329 5328 5326 5325 5321 5321 5322 5319
5325 5326 5326 5326 5333 5336 5337 5338 5342 5342 5340 5341 5343 5344 5343 5347 5347 5349 5350 5351 5347 5346 5342 5333 5326 5322 5320 5319 5321 5321 5320 5323 5322 5324 5321 5322 5321 5321 5320 5320 5321 5320 5319 5319 5317 5316 5316 5315 5313 5311 5307 5305 5303 5302
5331 5327 5332 5332 5334 5333 5333 5336 5341 5341 5340 5338 5337 5342 5340 5338 5337 5337 5344 5338 5328 5320 5323 5320 5316 5312 5310 5307 5306 5307 5305 5313 5313 5309 5308 5307 5307 5307 5307 5305 5307 5307 5305 5304 5303 5303 5302 5300 5298 5296 5295 5293 5292 5291
5328 5329 5332 5333 5322 5323 5323 5333 5335 5339 5332 5335 5338 5336 5335 5334 5332 5332 5325 5319 5304 5303 5305 5305 5303 5303 5299 5297 5298 5296 5299 5305 5299 5294 5294 5294 5292 5292 5292 5290 5290 5290 5291 5291 5291 5291 5288 5285 5283 5283 5282 5281 5281 5280
5324 5320 5314 5320 5324 5319 5320 5323 5336 5336 5335 5336 5336 5328 5332 5330 5326 5329 5325 5310 5294 5294 5293 5291 5295 5295 5295 5296 5292 5285 5285 5292 5287 5282 5279 5281 5281 5279 5278 5275 5273 5270 5270 5274 5274 5274 5273 5272 5271 5270 5269 5268 5267 5267
5319 5305 5308 5314 5316 5317 5317 5318 5316 5330 5322 5321 5326 5324 5322 5321 5322 5323 5319 5293 5287 5285 5283 5284 5286 5289 5286 5282 5280 5274 5273 5274 5274 5271 5267 5266 5268 5271 5268 5266 5260 5254 5252 5252 5252 5253 5254 5254 5254 5253 5254 5253 5252 5251
5307 5298 5304 5306 5309 5313 5316 5315 5313 5314 5317 5313 5313 5315 5313 5316 5314 5317 5306 5287 5281 5275 5273 5273 5275 5276 5273 5271 5269 5264 5259 5258 5260 5259 5253 5252 5250 5250 5251 5251 5249 5240 5236 5235 5235 5236 5236 5236 5237 5237 5239 5240 5239 5234
5296 5293 5299 5299 5300 5304 5302 5303 5307 5306 5303 5305 5308 5300 5302 5302 5310 5279 5268 5261 5262 5257 5255 5254 5257 5259 5258 5252 5247 5243 5241 5241 5241 5241 5239 5236 5232 5230 5229 5227 5225 5220 5221 5220 5220 5219 5219 5220 5220 5221 5222 5225 5218 5213
5283 5282 5276 5279 5281 5288 5285 5288 5291 5293 5296 5297 5294 5294 5294 5283 5271 5248 5243 5240 5239 5239 5236 5235 5234 5234 5232 5230 5227 5226 5226 5224 5223 5223 5221 5219 5216 5212 5208 5207 5206 5204 5204 5204 5204 5203 5203 5202 5203 5204 5206 5203 5198 5194
5270 5267 5266 5263 5262 5271 5273 5278 5282 5273 5267 5270 5271 5274 5253 5231 5224 5224 5220 5220 5221 5223 5223 5220 5216 5215 5213 5211 5208 5206 5206 5206 5209 5212 5213 5212 5204 5196 5191 5190 5189 5189 5188 5189 5190 5190 5189 5189 5188 5188 5188 5184 5178 5173
5252 5251 5245 5248 5249 5255 5262 5256 5254 5245 5242 5241 5236 5229 5221 5208 5201 5202 5205 5207 5209 5209 5207 5205 5204 5206 5204 5205 5198 5192 5188 5185 5183 5184 5186 5183 5180 5177 5176 5175 5175 5175 5175 5176 5177 5178 5178 5178 5176 5172 5169 5164 5158 5152
5240 5238 5240 5242 5247 5250 5238 5232 5229 5227 5224 5220 5217 5224 5212 5194 5188 5186 5187 5187 5189 5189 5191 5190 5188 5188 5188 5186 5186 5185 5177 5170 5167 5165 5164 5166 5166 5164 5163 5163 5162 5163 5163 5163 5163 5162 5161 5158 5154 5149 5145 5140 5135 5130
5232 5232 5228 5226 5230 5230 5230 5230 5230 5224 5215 5211 5203 5193 5188 5191 5189 5175 5168 5170 5176 5176 5169 5173 5176 5170 5169 5168 5166 5162 5160 5158 5154 5151 5150 5150 5151 5150 5152 5151 5151 5150 5149 5147 5145 5143 5141 5138 5133 5127 5121 5116 5111 5106
5227 5226 5225 5224 5227 5225 5220 5222 5226 5217 5211 5205 5194 5188 5182 5181 5173 5157 5152 5152 5154 5155 5156 5156 5156 5155 5153 5153 5152 5149 5146 5142 5139 5138 5136 5135 5134 5135 5137 5137 5138 5136 5135 5133 5129 5125 5122 5117 5112 5106 5101 5095 5089 5084